SPACEBEE-91 (48940 NORAD) Tracking and Keplerian Element Data

This shows tracking and keplerian element data for the satellite.

Feedback or suggestion? Click here.




ElementValue
Catalog48940
NameSPACEBEE-91
Epoch Orbit1676
Epoch Day287.57441929
Epoch Year2021
RAAN55.0342
Inclination97.5204
Eccentricity0.0016925
Argument of Perigee230.1043
Mean Anonmoly129.8702
Mean Motion15.15013432
Decay Rate8.341E-05
L11 48940U 21059BP 21287.57441929 .00008341 00000-0 44839-3 0 9990
L22 48940 97.5204 55.0342 0016925 230.1043 129.8702 15.15013432 16763

Live tracking and technical data element details for SPACEBEE-91 (NORAD 48940). SPACEBEE-91 can be tracked NOW for your location showing map with azimuth and elevation plus other details from your city location.

Track the satellite on the map from your city or location and see movement details for azimuth, elevation, latitude, longitude, range, height, and movement on the map or in text.







IsCatalogInMostPopularTable: catalog: 48940, numindb: 19
Update: records affected: 1



GetName: 48940 SPACEBEE-91

Hit Count: updated at: Tue, 19 Oct 2021 09:23:38 GMT